Simultaneous Nadir Overpasses (SNOs) Predictions

Prediction of SNOs between NPP and TERRA Satellite Orbit:

Table of predicted SNOs for the next 14.0 days since TLE Epoch: 5/28/2016
Index Date (NPP) Time (NPP) Lat,Lon (NPP) SZA (NPP ) Date (TERRA) Time (TERRA) Lat,Lon (TERRA) SZA (TERRA ) Distance(km) Time Diff (sec)
1 05/29/2016 02:06:48 69.47, 145.76 47.71 05/29/2016 02:07:54 69.35, 148.03 47.57 89.48 66
2 05/29/2016 02:57:12 -68.44, -45.51 133.35 05/29/2016 02:57:38 -68.46, -45.47 133.33 2.67 26
3 05/29/2016 03:47:56 68.29, 121.98 46.51 05/29/2016 03:47:06 68.30, 121.98 46.51 0.30 50
4 05/31/2016 18:23:27 68.61, -97.29 46.45 05/31/2016 18:24:38 68.59, -97.06 46.43 9.67 71
5 05/31/2016 19:14:06 -68.38, 70.33 133.79 05/31/2016 19:14:10 -68.37, 70.30 133.80 1.75 4
6 05/31/2016 20:04:50 68.24,-122.18 46.07 05/31/2016 20:03:37 68.26,-122.18 46.09 2.17 73
7 06/03/2016 10:40:18 68.46, 18.68 45.96 06/03/2016 10:41:10 68.44, 18.63 45.93 3.39 52
8 06/03/2016 11:30:59 -68.34,-173.84 134.18 06/03/2016 11:30:40 -68.33,-173.87 134.18 1.24 19
9 06/03/2016 12:21:28 67.39, -5.36 44.87 06/03/2016 12:20:20 67.49, -7.20 44.98 79.33 68
10 06/06/2016 02:57:12 68.42, 134.50 45.62 06/06/2016 02:57:40 68.44, 134.51 45.64 2.39 28
11 06/06/2016 03:47:53 -68.29, -58.01 134.51 06/06/2016 03:47:11 -68.28, -58.05 134.52 1.74 42
12 06/08/2016 18:23:28 -68.83, 82.42 134.20 06/08/2016 18:24:40 -68.72, 83.08 134.32 29.50 72
13 06/08/2016 19:14:06 68.38,-109.68
